SCP
0 0 0 0 0 0 0 0 0 0 0 0 0 0 0 0 0 0 0 0 0 0 0 0 0 0 0 0 0 0 0 0 0 0 0 0 0 0 0 0 0 0 0 0 0 0 0 0 0
0 0 0 0 0 0 0 0 0 0 0 0 0 0 0 0 0 0 0 0 0 0 0 0 0 0 0 0 0 0 0 0 0 0 0 0 0 0 0 0 0 0 0 0 0 0 0 0 0
0 0 0 0 0 0 0 0 0 0 0 0 0 0 0 0 0 0 0 0 0 0 0 0 0 0 0 0 0 0 0 0 0 0 0 0 0 0 0 0 0 0 0 0 0 0 0 0 0
0 0 0 0 0 0 0 0 0 0 0 0 0 0 0 0 0 0 0 0 0 0 0 0 0 0 0 0 0 0 0 0 0 0 0 0 0 0 0 0 0 0 0 0 0 0 0 0 0
0 0 0 0 0 0 0 0 0 0 0 0 0 0 0 0 0 0 0 0 0 0 0 0 0 0 0 0 0 0 0 0 0 0 0 0 0 0 0 0 0 0 0 0 0 0 0 0 0
0 0 0 0 0 0 0 0 0 0 0 0 0 0 0 0 0 0 0 0 0 0 0 0 0 0 0 0 0 0 0 0 0 0 0 0 0 0 0 0 0 0 0 0 0 0 0 0 0
0 0 0 0 0 0 0 0 0 0 0 0 0 0 0 0 0 0 0 0 0 0 0 0 0 0 0 0 0 0 0 0 0 0 0 0 0 0 0 0 0 0 0 0 0 0 0 0 0
0 0 0 0 0 0 0 0 0 0 0 0 0 0 0 0 0 0 0 0 0 0 0 0 0 0 0 0 0 0 0 0 0 0 0 0 0 0 0 0 0 0 0 0 0 0 0 0 0
-0 0 0 0 0 0 0 0 0 0 0 0 0 0 0 0 0 0 0 0 0 0 0 0 0 0 0 0 0 0 0 0 0 0 0 0 0 0 0 0 0 0 0 0 0 0 0 0 0
0 0 0 0 0 0 0 0 0 0 0 0 0 0 0 0 0 0 0 0 0 0 0 0 0 0 0 0 0 0 0 0 0 0 0 0 0 0 0 0 0 0 0 0 0 0 0 0 0
0 0 0 0 0 0 0 0 0 0 0 0 0 0 0 0 0 0 0 0 0 0 0 0 0 0 0 0 0 0 0 0 0 0 0 0 0 0 0 0 0 0 0 0 0 0 0 0 0
0 0 0 0 0 0 0 0 0 0 0 0 0 0 0 0 0 0 0 0 0 0 0 0 0 0 0 0 0 0 0 0 0 0 0 0 0 0 0 0 0 0 0 0 0 0 0 0 0
0 0 0 0 0 0 0 0 0 0 0 0 0 0 0 0 0 0 0 0 0 0 0 0 0 0 0 0 0 0 0 0 0 0 0 0 0 0 0 0 0 0 0 0 0 0 0 0 0
0 0 0 0 0 0 0 0 0 0 0 0 0 0 0 0 0 0 0 0 0 0 0 0 0 0 0 0 0 0 0 0 0 0 0 0 0 0 0 0 0 0 0 0 0 0 0 0 0
0 0 0 0 0 0 0 0 0 0 0 0 0 0 0 0 0 0 0 0 0 0 0 0 0 0 0 0 0 0 0 0 0 0 0 0 0 0 0 0 0 0 0 0 0 0 0 0 0
0 0 0 0 0 0 0 0 0 0 0 0 0 0 0 0 0 0 0 0 0 0 0 0 0 0 0 0 0 0 0 0 0 0 0 0 0 0 0 0 0 0 0 0 0 0 0 0 0
0 0 0 0 0 0 0 0 0 0 0 0 0 0 0 0 0 0 0 0 0 0 0 0 0 0 0 0 0 0 0 0 0 0 0 0 0 0 0 0 0 0 0 0 0 0 0 0 0
0 0 0 0 0 0 0 0 0 0 0 0 0 0 0 0 0 0 0 0 0 0 0 0 0 0 0 0 0 0 0 0 0 0 0 0 0 0 0 0 0 0 0 0 0 0 0 0 0
0 0 0 0 0 0 0 0 0 0 0 0 0 0 0 0 0 0 0 0 0 0 0 0 0 0 0 0 0 0 0 0 0 0 0 0 0 0 0 0 0 0 0 0 0 0 0 0 0
0 0 0 0 0 0 0 0 0 0 0 0 0 0 0 0 0 0 0 0 0 0 0 0 0 0 0 0 0 0 0 0 0 0 0 0 0 0 0 0 0 0 0 0 0 0 0 0 0
0 0 0 0 0 0 0 0 0 0 0 0 0 0 0 0 0 0 0 0 0 0 0 0 0 0 0 0 0 0 0 0 0 0 0 0 0 0 0 0 0 0 0 0 0 0 0 0 0
0 0 0 0 0 0 0 0 0 0 0 0 0 0 0 0 0 0 0 0 0 0 0 0 0 0 0 0 0 0 0 0 0 0 0 0 0 0 0 0 0 0 0 0 0 0 0 0 0
0 0 0 0 0 0 0 0 0 0 0 0 0 0 0 0 0 0 0 0 0 0 0 0 0 0 0 0 0 0 0 0 0 0 0 0 0 0 0 0 0 0 0 0 0 0 0 0 0
0 0 0 0 0 0 0 0 0 0 0 0 0 0 0 0 0 0 0 0 0 0 0 0 0 0 0 0 0 0 0 0 0 0 0 0 0 0 0 0 0 0 0 0 0 0 0 0 0
0 0 0 0 0 0 0 0 0 0 0 0 0 0 0 0 0 0 0 0 0 0 0 0 0 0 0 0 0 0 0 0 0 0 0 0 0 0 0 0 0 0 0 0 0 0 0 0 0
0 0 0 0 0 0 0 0 0 0 0 0 0 0 0 0 0 0 0 0 0 0 0 0 0 0 0 0 0 0 0 0 0 0 0 0 0 0 0 0 0 0 0 0 0 0 0 0 0
0 0 0 0 0 0 0 0 0 0 0 0 0 0 0 0 0 0 0 0 0 0 0 0 0 0 0 0 0 0 0 0 0 0 0 0 0 0 0 0 0 0 0 0 0 0 0 0 0
0 0 0 0 0 0 0 0 0 0 0 0 0 0 0 0 0 0 0 0 0 0 0 0 0 0 0 0 0 0 0 0 0 0 0 0 0 0 0 0 0 0 0 0 0 0 0 0 0
0 0 0 0 0 0 0 0 0 0 0 0 0 0 0 0 0 0 0 0 0 0 0 0 0 0 0 0 0 0 0 0 0 0 0 0 0 0 0 0 0 0 0 0 0 0 0 0 0
0 0 0 0 0 0 0 0 0 0 0 0 0 0 0 0 0 0 0 0 0 0 0 0 0 0 0 0 0 0 0 0 0 0 0 0 0 0 0 0 0 0 0 0 0 0 0 0 0
Wind_Speed
9 9 6 2 2 1 5 6 9 8 8 9 10 11 13 13 9 7 2 7 8 11 11 10 9 7 5 4 3 2 2 1 2 2 2 2 2 2 2 2 3 3 3 2 3 3 3 3 4
8 7 4 3 1 1 4 5 7 8 8 7 10 13 12 11 10 7 5 6 8 11 10 10 9 8 6 5 4 3 3 3 3 4 4 4 4 4 3 3 4 3 3 3 2 3 3 3 3
8 7 4 3 0 4 4 3 4 8 9 9 11 12 9 7 7 5 5 6 10 11 11 10 10 8 7 6 5 4 4 4 4 5 5 5 5 5 5 5 5 4 4 3 3 2 2 3 3
5 4 4 2 3 8 6 5 5 8 9 11 10 11 8 7 4 4 6 8 10 10 10 10 10 8 7 6 5 5 4 4 4 5 5 6 6 6 6 6 6 5 5 4 3 3 3 3 3
4 3 2 1 5 8 7 7 8 8 10 12 12 11 8 7 6 7 8 8 8 7 7 7 7 6 6 5 4 3 4 4 4 4 5 5 6 6 6 6 6 6 6 5 4 4 3 3 3
3 3 1 0 6 7 5 5 7 8 9 10 10 10 7 7 7 6 7 6 6 6 4 5 5 4 3 3 2 2 2 3 3 4 5 5 6 6 7 7 7 7 7 6 5 5 4 5 4
5 4 3 3 5 5 5 6 8 8 9 9 8 8 7 7 5 5 5 5 4 3 3 3 2 2 2 1 0 1 2 2 3 3 4 5 6 7 7 8 8 8 8 7 7 6 6 6 6
5 3 6 4 5 5 5 5 7 8 9 9 9 8 6 6 5 5 4 4 3 3 2 1 1 1 1 1 3 3 3 3 4 4 5 5 7 7 8 8 8 9 8 8 8 7 7 7 7
8 1 2 3 3 5 5 4 6 6 10 12 12 11 8 5 4 4 4 4 4 5 4 3 3 2 1 2 1 2 3 4 4 4 6 5 3 4 4 5 5 7 8 8 8 8 8 8 9
5 0 3 2 4 6 4 4 4 5 8 9 9 8 6 4 4 4 4 5 5 5 5 5 5 4 3 3 1 1 2 2 3 2 3 2 3 3 4 4 6 7 7 8 9 9 9 7 5
3 1 3 3 6 5 4 4 2 3 5 6 7 6 5 3 4 5 5 6 5 5 6 6 6 6 5 3 2 1 1 2 2 3 3 3 3 2 3 2 2 3 5 4 5 5 4 5 5
4 2 3 6 4 2 3 3 3 6 6 8 8 5 4 4 5 5 5 5 5 6 5 5 7 7 6 5 4 3 2 1 1 2 3 3 2 3 3 3 2 2 2 2 2 2 4 6 7
3 2 4 6 3 1 2 3 4 6 6 6 6 4 3 4 4 4 4 5 5 5 5 6 6 6 6 4 3 4 3 3 3 2 2 3 3 3 3 3 3 3 3 3 3 3 4 5 6
2 5 6 6 5 3 3 4 5 7 7 6 5 4 3 3 2 3 5 6 6 6 6 5 6 5 6 5 5 4 4 3 3 2 3 3 2 2 3 3 3 3 3 3 3 4 4 4 4
6 6 6 6 5 3 3 6 7 11 7 6 5 4 3 1 1 3 6 6 7 7 7 5 5 6 6 6 6 5 4 4 3 3 4 4 3 2 2 2 2 3 4 4 4 4 3 4 5
6 7 6 5 5 4 4 4 9 10 8 6 4 4 5 3 1 5 7 6 7 6 6 5 6 6 6 5 5 4 3 4 4 4 4 5 5 4 3 1 2 2 3 3 4 4 4 4 4
4 5 6 5 9 7 6 4 10 10 7 6 5 3 3 2 3 6 7 6 5 4 5 5 5 4 5 5 5 4 3 3 3 3 3 5 6 6 4 2 2 3 2 3 4 3 4 4 4
2 2 9 5 7 5 5 5 9 11 7 5 3 3 2 1 4 7 6 4 3 4 4 5 3 4 4 4 5 4 4 4 3 3 4 5 5 6 5 3 3 2 2 2 2 3 4 4 4
7 8 9 2 6 2 6 7 5 11 7 6 5 4 1 2 5 7 3 3 4 5 4 4 5 5 4 3 4 4 4 4 3 3 4 4 4 5 5 4 4 3 2 3 3 2 3 4 3
9 10 8 3 6 2 8 8 4 9 8 4 3 2 1 3 3 5 3 5 4 3 4 6 6 4 4 3 3 4 4 3 2 3 3 4 5 4 5 4 4 3 2 3 3 2 2 2 3
10 6 6 7 5 5 7 8 6 7 5 4 3 2 3 2 3 4 4 5 3 4 5 6 5 5 5 5 3 4 3 3 3 4 3 4 4 3 3 4 4 4 3 3 3 3 3 3 3
5 6 5 6 7 6 5 4 6 9 7 6 5 4 1 2 3 3 3 4 4 4 5 5 5 5 5 5 4 5 4 4 4 3 3 4 4 3 3 4 4 4 3 3 3 3 2 3 3
4 4 5 7 8 9 6 6 4 8 6 5 4 3 3 3 4 3 3 3 2 3 3 3 3 4 3 3 3 3 3 3 3 3 4 4 3 3 3 3 4 4 3 3 3 3 3 3 3
1 4 7 7 6 9 7 4 4 5 5 4 5 4 4 4 4 4 4 2 1 2 2 1 1 2 2 3 4 3 3 4 4 4 4 4 3 3 4 4 4 4 3 4 4 3 4 3 4
5 6 5 7 6 4 7 2 4 9 8 5 3 3 5 4 3 3 3 2 1 1 2 2 2 2 2 3 3 4 3 4 4 4 4 4 3 3 4 4 4 3 3 4 4 4 4 4 4
3 6 6 5 3 3 5 3 8 10 7 4 3 2 4 5 4 3 3 2 1 1 1 1 2 2 1 2 3 3 3 2 2 3 4 4 3 3 4 4 4 4 4 4 4 3 4 3 4
4 4 3 6 9 5 6 8 9 6 7 5 3 3 2 4 5 4 3 2 1 1 1 0 2 3 2 1 2 2 3 3 3 4 4 4 4 4 4 4 5 5 4 4 3 3 4 4 4
5 7 4 4 5 5 3 6 6 7 4 4 4 4 4 4 4 5 4 4 2 2 2 2 2 3 2 2 2 2 2 2 3 3 3 4 5 4 4 4 5 5 5 4 4 3 4 4 4
7 5 4 5 5 3 3 5 6 6 4 2 1 2 3 4 4 3 3 3 2 2 2 2 2 2 1 1 2 3 2 1 3 2 2 3 4 5 5 4 5 5 5 4 4 5 5 5 5
3 4 4 4 4 2 2 3 5 5 3 1 0 1 2 3 3 4 3 3 2 2 1 1 1 1 0 0 2 3 2 2 3 3 3 4 5 4 5 4 4 5 5 5 5 6 6 6 5
Wind_Direction
193 211 210 220 245 267 48 39 45 29 39 47 48 62 66 52 43 73 27 17 66 98 111 108 97 88 74 61 49 30 2 335 308 292 287 285 287 290 292 302 312 320 329 345 353 0 1 6 6
212 209 217 228 230 96 64 42 47 43 39 52 63 65 66 57 48 70 30 8 66 82 90 94 90 80 69 54 37 10 342 320 304 289 284 284 279 278 281 284 288 298 308 319 336 349 344 354 355
234 223 237 235 230 89 93 61 52 57 43 59 70 60 51 42 36 44 19 31 68 75 79 82 82 77 70 59 43 25 2 343 324 307 295 285 280 278 277 275 277 282 290 298 311 323 323 322 326
218 225 245 263 69 71 76 69 49 59 48 59 76 75 70 49 41 43 38 52 69 75 79 77 74 72 69 63 49 34 17 359 338 321 306 295 286 278 275 272 271 273 275 278 284 285 287 294 296
230 238 271 332 76 70 56 48 54 54 49 62 79 90 84 68 66 59 53 51 62 68 76 82 81 76 70 64 53 34 17 3 344 324 311 300 290 284 279 274 269 267 268 269 268 265 270 276 278
260 253 267 85 86 78 65 42 55 61 54 48 87 94 82 77 66 66 68 64 63 66 67 89 97 93 74 56 45 27 352 343 340 331 317 302 289 283 277 273 269 265 263 263 261 254 258 263 265
254 271 313 94 98 96 76 45 48 61 55 39 56 93 99 86 80 82 84 91 89 85 79 90 121 129 128 168 267 314 324 317 307 310 313 307 294 280 272 267 262 260 258 255 254 250 250 254 254
265 299 352 6 78 89 85 73 55 51 64 47 42 87 98 98 118 113 107 96 81 67 56 67 99 109 163 218 222 238 270 283 284 279 280 283 286 277 267 260 257 254 253 252 251 250 246 247 248
264 318 12 345 64 100 111 104 87 78 81 73 69 80 99 119 120 101 82 66 47 36 20 15 5 352 311 264 211 216 254 256 268 274 266 265 267 278 275 260 263 258 253 251 250 248 247 245 243
237 205 156 309 39 104 109 90 107 119 104 100 97 100 109 102 78 61 49 39 28 21 15 6 352 345 332 324 346 232 258 232 239 238 241 230 238 254 273 274 255 254 254 253 248 246 246 242 243
240 180 138 103 54 88 110 97 67 86 98 104 109 105 96 86 64 42 34 36 21 25 17 0 358 345 344 337 332 322 271 234 233 240 234 222 227 235 248 252 252 245 242 242 250 240 238 237 239
234 109 86 90 74 85 104 107 79 58 80 90 97 106 97 60 45 31 23 27 9 30 8 10 2 346 350 349 344 302 286 275 262 236 242 227 211 217 227 224 220 224 225 218 228 243 246 253 252
229 115 105 110 134 121 102 108 98 107 104 108 119 121 93 60 35 23 20 25 15 29 9 23 1 353 346 335 310 316 325 320 310 292 260 241 224 222 223 222 209 209 211 210 215 234 256 270 272
171 173 164 150 149 157 184 158 167 146 149 157 165 165 120 76 13 6 28 20 14 20 14 22 354 0 346 342 341 336 336 322 317 309 300 286 258 235 220 227 218 210 208 209 212 229 244 263 280
185 195 180 173 170 162 238 230 192 141 169 185 202 179 131 97 348 38 39 22 19 16 9 7 354 12 357 353 342 331 327 335 340 330 321 313 300 279 259 241 236 219 209 208 212 226 244 255 265
226 235 222 181 175 165 234 292 126 142 182 200 218 196 157 168 141 65 46 29 24 18 359 359 10 6 359 352 332 325 332 348 336 334 342 337 336 334 322 303 282 256 222 208 205 206 213 235 246
232 281 289 192 193 182 217 265 151 166 191 212 218 225 172 172 98 75 53 38 26 20 355 355 26 10 5 351 329 330 348 352 339 349 360 347 344 334 325 315 293 283 248 222 222 204 200 220 232
275 245 270 230 172 211 256 269 166 171 191 227 228 229 210 114 77 77 55 46 39 40 360 344 28 30 12 5 335 351 354 347 354 360 4 357 341 338 333 318 307 301 284 256 236 219 207 211 216
264 261 275 120 126 272 289 280 185 165 181 216 234 227 217 89 87 89 73 63 48 38 353 344 31 27 17 14 342 347 345 338 355 0 8 349 347 346 338 333 324 320 296 279 261 236 224 222 205
273 281 301 46 96 342 294 281 223 165 179 203 253 276 212 120 98 102 83 58 38 34 3 6 29 22 21 13 350 340 348 333 355 354 359 356 355 353 345 345 331 318 303 287 277 256 234 238 207
271 292 348 347 334 262 263 264 212 155 161 175 202 290 321 69 62 56 55 64 27 38 26 9 23 19 28 6 8 351 343 339 0 353 354 343 336 354 355 344 337 327 322 301 293 261 244 246 239
295 45 358 310 289 274 211 284 164 156 165 187 186 189 205 93 96 79 57 53 30 42 37 12 20 17 24 6 9 348 356 354 340 338 342 336 343 0 4 350 340 335 327 317 304 296 261 243 249
34 13 301 282 276 281 239 245 145 143 168 164 143 150 141 124 115 106 90 69 43 47 50 21 22 15 20 355 330 330 1 332 324 331 340 340 339 348 8 356 341 331 323 320 313 312 282 249 240
55 267 253 246 256 257 231 234 132 138 114 105 120 136 140 131 129 131 117 113 91 77 62 21 34 9 359 333 326 342 352 336 332 345 346 339 331 342 7 356 342 332 334 323 311 302 289 269 254
228 255 253 215 214 216 119 173 91 97 86 73 77 107 124 126 150 145 133 124 80 63 65 1 2 6 3 340 333 343 352 331 343 1 338 333 333 342 354 354 331 326 321 311 308 304 290 274 263
238 274 288 302 287 123 152 174 102 104 105 109 127 133 139 150 156 142 144 150 171 132 84 14 337 310 314 326 333 332 331 339 360 345 326 334 331 329 342 339 320 315 315 313 309 304 295 286 274
276 245 321 319 294 284 171 129 122 134 144 143 147 150 176 163 155 166 166 168 167 124 107 283 292 295 296 299 310 315 341 356 352 331 339 343 332 330 338 323 322 323 316 311 310 299 302 302 290
294 334 309 262 298 295 164 150 138 144 136 147 163 173 180 173 170 171 163 170 177 173 189 222 235 267 295 323 315 329 326 349 322 302 333 327 314 313 315 336 339 330 329 334 338 320 307 298 288
187 218 243 275 276 284 331 77 79 99 84 58 85 136 156 166 166 161 155 163 168 201 218 221 229 229 243 300 313 313 317 337 307 313 324 312 310 324 337 341 338 330 335 339 341 328 318 310 300
220 253 258 265 299 296 305 99 100 104 113 141 287 135 143 144 154 159 165 178 200 215 256 260 301 303 227 315 319 311 321 324 324 339 337 331 323 329 329 334 334 334 337 341 336 327 328 322 313